User: anonymous   Login
Location: Unspecified
(0.0000°N, 0.0000°E)
Time: 21:30:51
(UTC+00:00)
Language:

Picosat 9 - Orbit

View from above orbital plane
View from above orbital plane
View from above satellite
View from above satellite

Ground track
Ground track

The orbit data is extracted from the following two-line orbital elements,

1 26930U 01043B   18048.61178178 -.00000036 +00000-0 +18123-4 0  9997
2 26930 067.0017 134.8909 0003985 228.8813 131.1944 14.30664135855592
Epoch (UTC): 17 February 2018 14:40:57
Eccentricity: 0.0003985
inclination: 67.0017°
perigee height: 786 km
apogee height: 792 km
right ascension of ascending node: 134.8909°
argument of perigee: 228.8813°
revolutions per day: 14.30664135
mean anomaly at epoch: 131.1944°
orbit number at epoch: 85559

The dashed part of the orbit path shows where the satellite is in the earth's shadow,  

DLR